View from above orbital plane
|
View from above satellite
|
Ground track
|
The orbit data is extracted from the following two-line orbital elements,
1 18421U 87088A 21015.56687292 .00000314 00000-0 14000-4 0 9998
2 18421 82.4991 63.5887 0016172 53.7282 306.5442 15.17422791816718
Epoch (UTC): | 15 January 2021 13:36:17 |
Eccentricity: | 0.0016172 |
inclination: | 82.4991° |
perigee height: | 502 km |
apogee height: | 525 km |
right ascension of ascending node: | 63.5887° |
argument of perigee: | 53.7282° |
revolutions per day: | 15.17422791 |
mean anomaly at epoch: | 306.5442° |
orbit number at epoch: | 81671 |
The dashed part of the orbit path shows where the satellite is in the earth's shadow,
|
|